Location: Góry Miechowskie
(50.3599°N, 20.1803°E)
Time: 14:40:22
(UTC+00:00)

Vanguard 1 Rocket - Pass Details

Date: 18 September 2024
Orbit: 650 x 4218 km, 34.3° (Epoch: 07 October)

Event Time Altitude Azimuth Distance (km) Brightness Sun altitude
Rises 06:59:17 0° 274° (W) 7,128 11.4 23.7°
Reaches altitude 10° 07:04:08 10° 267° (W) 6,505 11.3 24.3°
Maximum altitude 07:23:33 37° 211° (SSW) 5,441 11.6 27.0°
Drops below altitude 10° 07:44:40 10° 155° (SSE) 6,978 13.1 29.6°
Sets 07:50:15 0° 147° (SSE) 7,666 13.2 30.3°
